SCP
0 0 0 0 -0 -0 -0 0 0 0 0 0 0 0 0 0 0 0 0 0 0 0 0 -0 -0 -0 -0 -0 -0 0 0 0 0 0 0 0 0 0 0 0 0 0 0
-0 0 0 -0 -0 -0 -0 -0 0 0 0 0 0 0 0 0 0 0 0 0 0 0 -0 0 -0 -0 -0 -0 -0 0 0 0 0 0 0 0 0 0 0 0 0 0 0
-0 -0 -0 0 -0 -0 -0 -0 0 0 0 0 0 0 0 0 0 0 0 0 0 0 -0 0 0 -0 -0 -0 -0 0 0 0 0 0 0 0 0 0 0 0 0 0 0
-0 -0 -0 0 0 -0 0 0 0 0 0 0 0 0 0 0 0 0 0 0 0 0 0 -0 0 0 0 0 0 0 0 -0 0 0 0 0 0 0 0 0 0 0 0
-0 -0 -0 -0 0 0 0 0 0 0 0 0 0 0 0 0 0 0 0 0 0 0 0 0 -0 0 0 0 0 0 0 0 0 0 0 0 0 0 0 -0 0 0 0
0 0 -0 -0 0 0 0 0 0 0 0 0 0 0 0 0 0 0 0 0 0 0 0 0 -0 -0 0 0 0 0 0 0 0 0 0 0 0 0 0 0 0 0 0
0 -0 0 0 0 0 0 0 0 0 0 0 0 0 0 0 0 0 0 0 0 0 0 0 0 -0 -0 0 0 0 0 0 0 0 0 0 0 0 0 0 0 0 0
0 0 0 0 0 0 0 0 0 0 0 0 0 0 0 0 0 0 0 0 0 0 0 0 0 0 -0 -0 0 0 0 0 0 0 0 0 0 0 0 0 0 0 0
0 0 0 0 0 0 0 0 0 0 0 0 0 0 0 0 0 0 0 0 0 0 0 0 0 -0 0 -0 0 0 0 0 0 0 0 0 0 0 0 0 0 0 0
0 0 0 0 0 0 0 0 0 0 0 0 0 0 0 0 0 0 0 0 0 0 0 0 0 -0 0 0 -0 0 0 0 0 0 0 0 0 0 0 0 0 0 -0
-0 0 0 0 0 0 0 0 0 0 0 0 0 0 0 0 0 0 0 0 0 0 0 0 0 -0 0 0 -0 -0 0 0 0 0 0 -0 -0 0 0 0 0 0 -0
-0 0 0 0 0 0 0 0 0 0 0 0 0 0 0 0 0 0 0 0 0 0 0 0 0 0 0 0 0 -0 0 0 0 0 0 -0 -0 0 0 0 0 0 -0
0 0 0 0 -0 -0 0 0 0 0 0 0 0 0 0 0 0 0 0 0 0 0 0 0 0 -0 -0 0 0 0 0 0 0 0 0 -0 -0 0 0 0 0 0 0
0 0 -0 -0 -0 -0 0 0 -0 0 0 0 0 0 0 0 0 0 0 0 0 0 0 0 0 0 -0 -0 0 -0 0 0 0 0 0 0 0 0 0 0 0 0 0
0 -0 0 -0 -0 -0 -0 0 0 -0 -0 -0 -0 0 0 0 0 0 0 0 0 0 0 0 0 0 0 0 -0 0 -0 0 0 0 0 0 -0 -0 0 0 0 0 0
0 0 0 -0 -0 -0 -0 -0 -0 -0 -0 -0 -0 -0 0 0 0 0 0 0 0 0 0 -0 0 0 0 0 -0 -0 -0 -0 -0 0 0 -0 0 -0 0 0 0 0 0
0 0 0 0 -0 -0 -0 -0 -0 0 -0 -0 -0 -0 -0 -0 -0 0 0 0 0 0 -0 -0 -0 -0 0 0 0 -0 -0 0 0 0 0 0 0 -0 -0 0 0 0 0
-0 -0 0 0 -0 -0 -0 -0 0 -0 -0 -0 0 0 0 -0 -0 -0 -0 -0 0 -0 0 -0 -0 0 0 0 0 0 0 0 0 0 0 0 0 -0 -0 -0 0 0 0
-0 -0 0 -0 -0 -0 -0 -0 -0 -0 -0 0 0 -0 -0 0 0 -0 -0 -0 -0 -0 -0 0 0 -0 0 0 0 0 0 0 0 0 0 0 0 0 0 0 0 0 0
-0 -0 -0 -0 0 -0 -0 -0 -0 -0 -0 0 0 -0 0 -0 0 -0 -0 -0 0 0 0 -0 0 0 0 0 0 0 0 0 0 0 0 0 0 0 0 0 0 -0 -0
-0 -0 -0 -0 -0 -0 -0 0 -0 -0 -0 0 0 -0 0 0 0 -0 -0 0 0 0 0 -0 0 0 0 0 -0 0 -0 -0 0 -0 0 -0 0 0 0 0 0 0 0
-0 -0 -0 -0 -0 -0 -0 -0 -0 -0 -0 0 0 -0 -0 -0 -0 -0 -0 0 0 0 0 -0 -0 0 0 -0 -0 0 0 -0 -0 -0 -0 -0 -0 0 0 0 0 0 0
-0 -0 -0 -0 -0 -0 -0 -0 -0 -0 -0 -0 -0 0 0 -0 -0 -0 -0 0 0 0 0 0 0 -0 -0 -0 0 -0 -0 -0 0 -0 -0 -0 -0 -0 -0 -0 -0 0 -0
-0 -0 -0 -0 -0 -0 -0 -0 -0 0 0 0 0 0 -0 0 -0 -0 -0 -0 0 0 0 0 0 0 -0 -0 -0 -0 -0 0 0 0 0 0 0 -0 -0 -0 -0 -0 -0
-0 -0 -0 -0 -0 -0 -0 -0 -0 -0 0 -0 0 0 0 -0 -0 -0 -0 -0 -0 0 0 0 -0 -0 -0 -0 -0 -0 0 0 0 0 0 0 -0 0 0 -0 0 0 0
-0 0 0 -0 -0 -0 -0 -0 -0 -0 -0 -0 -0 0 0 0 0 -0 -0 -0 -0 0 0 0 -0 -0 -0 -0 -0 -0 -0 0 0 0 0 0 -0 0 0 0 0 0 0
Wind_Speed_500mb
39 42 40 42 43 42 43 40 37 36 35 33 30 27 27 24 23 26 25 25 20 25 24 24 21 23 28 29 32 34 34 32 30 30 33 34 33 33 33 38 35 35 37
46 46 41 41 44 43 42 38 34 31 33 30 26 26 25 23 25 26 27 25 21 24 23 25 28 30 32 35 37 35 34 34 27 31 35 37 34 34 31 30 35 36 34
47 45 43 40 42 41 40 37 33 34 31 28 25 22 21 21 24 24 23 25 22 22 24 27 31 34 38 38 36 35 35 34 31 31 36 34 34 30 29 30 29 34 33
46 41 40 41 42 39 38 35 33 30 28 26 22 18 19 20 20 21 22 25 24 25 29 32 35 35 37 40 38 37 36 31 30 33 34 32 28 31 28 26 31 34 33
45 40 41 44 44 40 36 34 31 28 25 21 17 15 16 19 16 19 20 22 23 25 30 35 38 38 42 39 40 40 37 36 35 34 36 34 28 30 26 28 32 34 29
44 39 45 44 45 39 33 33 29 26 23 20 15 14 11 13 14 14 16 17 20 21 29 31 34 38 38 35 35 34 33 33 34 31 31 33 28 27 26 29 30 30 29
43 41 45 42 38 36 30 28 27 22 19 16 11 8 9 9 8 10 10 14 14 19 20 29 30 32 32 29 25 26 26 26 28 31 29 28 27 25 26 27 25 27 26
45 42 42 37 32 29 27 23 21 18 15 12 8 6 6 8 7 7 8 11 12 17 21 22 27 28 26 23 20 19 19 21 26 24 23 21 23 23 23 24 23 23 23
39 38 38 34 29 25 23 20 19 18 16 13 8 6 4 6 4 6 8 12 14 17 19 23 26 22 19 19 21 15 13 16 14 17 17 18 22 19 20 19 19 21 20
39 36 34 31 28 25 23 20 18 17 14 12 8 6 3 3 5 6 9 12 14 17 18 20 24 22 19 16 19 18 12 10 9 12 14 15 18 18 15 14 16 16 17
39 37 33 29 25 24 22 19 18 16 13 10 9 7 3 3 3 6 9 12 13 15 18 17 18 21 19 15 14 15 12 11 12 7 11 11 12 16 13 11 11 12 13
39 37 33 29 26 25 22 19 18 16 12 10 8 7 3 2 2 7 7 11 12 14 17 18 15 18 19 19 15 14 11 7 11 11 13 11 9 11 11 8 9 8 9
37 35 32 30 27 24 20 17 16 13 10 9 9 7 4 4 6 3 10 8 11 14 16 18 18 18 18 22 21 17 7 6 9 12 10 8 6 6 7 7 7 6 4
35 31 29 29 27 23 20 17 15 11 8 6 8 5 5 3 7 2 0 8 9 14 16 17 18 17 18 22 25 19 12 9 11 10 10 9 6 7 7 9 10 10 8
34 33 32 27 26 26 21 19 16 11 8 7 7 3 1 4 1 3 3 3 7 11 14 15 18 16 17 21 25 22 16 13 4 10 15 12 7 7 10 11 11 9 10
33 33 34 27 27 26 21 19 15 11 9 8 6 3 1 3 1 5 5 6 6 6 9 14 15 16 15 21 19 21 21 20 16 10 18 13 12 9 14 16 13 12 11
32 32 32 30 27 23 19 17 13 10 7 7 5 3 1 1 0 4 8 8 6 5 5 9 11 15 18 21 21 19 20 20 20 14 17 15 15 13 14 18 15 15 13
32 31 28 28 27 24 20 19 14 9 5 5 3 5 3 1 2 7 7 6 5 5 5 5 7 10 15 22 22 22 23 24 23 22 25 24 20 19 17 19 22 19 19
29 27 27 27 27 25 23 20 19 12 7 3 3 6 3 2 2 5 6 8 6 2 7 6 3 3 11 16 20 17 31 32 30 31 27 29 34 29 22 24 27 25 26
36 31 28 28 26 27 29 28 25 18 10 4 4 4 5 6 5 6 8 7 5 3 4 6 8 12 16 22 26 24 24 32 35 35 37 26 28 30 28 27 27 27 36
40 38 34 31 28 28 33 35 31 24 13 9 8 8 4 5 4 10 6 5 5 3 7 11 10 11 16 15 9 2 35 22 21 27 31 31 32 30 29 29 27 23 17
47 43 40 36 33 29 28 32 28 20 15 12 11 8 7 2 2 7 5 6 9 2 5 3 4 6 14 6 10 11 11 12 19 19 21 23 22 28 29 27 26 24 21
52 47 45 42 36 32 26 25 27 22 18 13 8 5 0 5 4 5 3 8 10 6 6 5 3 2 9 14 17 7 5 0 7 12 18 19 23 26 26 28 27 29 27
51 48 48 46 41 37 30 28 28 26 14 11 9 4 6 3 3 3 7 7 9 8 9 9 7 8 1 1 5 7 7 7 1 2 8 11 15 18 20 22 24 27 26
45 40 43 46 47 44 37 32 30 28 20 11 7 4 6 8 6 4 6 6 4 7 11 12 10 8 11 9 5 6 6 8 5 2 4 3 10 14 16 17 18 18 20
40 37 39 43 47 47 44 37 33 29 25 21 14 6 8 6 8 4 5 5 5 7 9 10 10 9 12 13 13 12 14 11 10 8 8 5 5 8 14 14 13 14 15
Wind_Direction_500mb
148 139 135 136 139 141 143 138 133 127 125 118 116 114 109 107 104 96 91 92 100 105 106 115 117 113 114 105 105 110 110 108 103 111 112 111 112 111 112 115 107 113 120
146 144 144 139 137 139 142 143 137 130 128 120 118 117 111 99 96 89 88 90 96 98 97 108 120 120 121 113 110 113 110 107 103 110 115 104 102 104 109 118 121 112 111
147 146 147 147 142 140 140 142 139 138 133 125 125 122 105 101 100 97 91 86 88 93 99 101 119 124 119 116 115 111 109 105 102 110 114 109 108 115 116 114 124 120 110
146 146 150 152 146 144 142 140 143 144 139 132 129 125 118 108 106 100 93 85 90 97 100 103 118 123 117 115 110 106 103 101 102 103 108 113 106 115 109 105 119 121 112
146 149 151 153 148 146 144 147 150 152 144 140 144 130 122 115 104 100 93 86 86 99 104 111 120 122 123 116 108 102 96 93 97 103 102 114 106 111 106 107 113 116 113
150 150 154 155 153 148 147 146 148 148 141 136 136 131 133 121 114 106 103 96 94 98 116 119 121 126 129 122 111 103 95 90 94 100 105 108 112 108 106 114 113 119 117
153 155 159 163 162 154 155 151 151 150 149 147 134 138 131 124 125 125 120 112 109 108 121 127 130 132 140 134 121 109 98 93 90 94 101 106 109 115 115 116 121 120 119
158 161 165 170 172 168 170 170 173 174 184 179 169 169 141 136 141 141 145 135 139 130 133 140 133 138 149 157 150 124 106 99 91 93 95 101 113 121 123 121 123 125 122
169 171 174 178 183 191 196 196 194 193 198 199 208 204 176 142 165 147 147 146 146 159 144 151 149 137 135 160 175 163 124 107 90 88 93 99 102 124 123 119 119 124 127
176 180 184 185 192 199 203 199 199 203 203 207 211 230 197 183 157 124 148 137 143 160 159 157 160 161 146 131 162 175 153 118 104 101 96 109 111 109 119 125 121 117 118
182 184 186 190 193 202 199 193 197 202 205 215 220 219 175 174 164 116 117 145 136 153 170 169 166 176 174 156 149 168 169 154 138 120 118 124 114 115 117 113 131 115 121
184 184 186 191 193 195 192 191 198 199 206 206 203 164 180 171 272 215 136 148 155 145 163 179 181 178 184 178 163 151 136 156 167 147 136 133 130 118 112 112 113 134 131
181 184 182 187 190 189 190 189 199 199 196 200 197 183 197 35 24 236 192 162 171 161 168 184 190 186 184 188 178 169 180 188 194 176 177 147 149 164 144 135 129 134 145
186 182 183 185 184 178 184 183 189 190 179 179 185 187 188 357 17 334 167 204 176 180 181 184 193 198 190 192 192 195 191 175 150 179 185 180 181 194 195 198 184 182 181
189 183 181 180 172 173 173 168 165 160 160 177 177 214 52 63 11 110 181 187 177 187 194 195 199 204 208 194 195 199 198 192 214 234 208 217 220 233 209 209 219 216 211
182 181 181 175 174 177 170 162 160 168 188 199 192 244 295 46 129 158 140 118 156 143 176 204 205 206 207 197 201 208 209 218 233 243 213 229 233 260 228 215 230 225 221
181 178 182 185 186 184 189 180 181 189 188 176 204 230 247 26 228 184 178 180 172 128 160 192 203 217 221 217 212 212 224 224 228 217 216 224 245 249 234 227 229 237 243
197 200 201 203 202 202 203 201 199 207 174 185 242 204 198 61 266 224 207 176 179 155 162 184 205 221 234 228 229 246 237 233 226 237 236 240 240 255 242 229 230 230 236
202 205 210 217 221 219 218 213 213 205 195 222 317 201 222 33 340 245 223 195 164 126 180 182 186 272 258 252 245 270 253 238 239 241 234 238 244 249 236 232 232 231 234
213 211 214 220 224 225 224 220 216 208 218 245 253 261 242 271 250 228 223 200 179 195 244 248 278 296 282 276 271 259 239 229 238 244 235 243 234 236 232 237 243 247 244
225 225 221 224 221 219 217 217 218 214 223 243 254 271 295 297 257 212 212 204 220 261 294 258 289 301 311 292 276 347 205 221 234 241 222 229 242 227 237 245 251 254 253
232 232 232 227 225 220 221 218 221 222 229 234 241 256 252 260 186 207 207 222 227 300 337 230 273 344 354 91 145 152 179 232 226 224 221 232 232 231 237 245 254 254 249
237 234 232 229 224 221 223 221 220 217 224 221 226 271 40 215 195 203 211 221 230 270 267 277 254 299 24 98 107 126 141 233 201 235 240 244 237 242 246 244 254 253 246
238 234 234 229 224 223 222 229 224 218 220 247 269 236 215 178 209 196 228 240 245 251 262 255 254 236 229 18 79 50 33 20 4 40 265 245 243 248 250 256 259 254 250
236 229 226 228 222 223 222 224 224 223 225 231 162 156 232 234 227 239 226 234 265 271 250 244 250 266 235 243 255 308 340 342 316 299 350 300 263 259 260 261 266 246 243
233 219 214 222 221 224 223 223 221 223 222 212 206 247 275 276 243 267 243 236 271 303 280 246 255 261 230 237 253 268 277 288 296 270 275 301 249 257 264 263 254 242 241
Wind_Speed_850mb
39 42 40 42 43 42 43 40 37 36 35 33 30 27 27 24 23 26 25 25 20 25 24 24 21 23 28 29 32 34 34 32 30 30 33 34 33 33 33 38 35 35 37
46 46 41 41 44 43 42 38 34 31 33 30 26 26 25 23 25 26 27 25 21 24 23 25 28 30 32 35 37 35 34 34 27 31 35 37 34 34 31 30 35 36 34
47 45 43 40 42 41 40 37 33 34 31 28 25 22 21 21 24 24 23 25 22 22 24 27 31 34 38 38 36 35 35 34 31 31 36 34 34 30 29 30 29 34 33
46 41 40 41 42 39 38 35 33 30 28 26 22 18 19 20 20 21 22 25 24 25 29 32 35 35 37 40 38 37 36 31 30 33 34 32 28 31 28 26 31 34 33
45 40 41 44 44 40 36 34 31 28 25 21 17 15 16 19 16 19 20 22 23 25 30 35 38 38 42 39 40 40 37 36 35 34 36 34 28 30 26 28 32 34 29
44 39 45 44 45 39 33 33 29 26 23 20 15 14 11 13 14 14 16 17 20 21 29 31 34 38 38 35 35 34 33 33 34 31 31 33 28 27 26 29 30 30 29
43 41 45 42 38 36 30 28 27 22 19 16 11 8 9 9 8 10 10 14 14 19 20 29 30 32 32 29 25 26 26 26 28 31 29 28 27 25 26 27 25 27 26
45 42 42 37 32 29 27 23 21 18 15 12 8 6 6 8 7 7 8 11 12 17 21 22 27 28 26 23 20 19 19 21 26 24 23 21 23 23 23 24 23 23 23
39 38 38 34 29 25 23 20 19 18 16 13 8 6 4 6 4 6 8 12 14 17 19 23 26 22 19 19 21 15 13 16 14 17 17 18 22 19 20 19 19 21 20
39 36 34 31 28 25 23 20 18 17 14 12 8 6 3 3 5 6 9 12 14 17 18 20 24 22 19 16 19 18 12 10 9 12 14 15 18 18 15 14 16 16 17
39 37 33 29 25 24 22 19 18 16 13 10 9 7 3 3 3 6 9 12 13 15 18 17 18 21 19 15 14 15 12 11 12 7 11 11 12 16 13 11 11 12 13
39 37 33 29 26 25 22 19 18 16 12 10 8 7 3 2 2 7 7 11 12 14 17 18 15 18 19 19 15 14 11 7 11 11 13 11 9 11 11 8 9 8 9
37 35 32 30 27 24 20 17 16 13 10 9 9 7 4 4 6 3 10 8 11 14 16 18 18 18 18 22 21 17 7 6 9 12 10 8 6 6 7 7 7 6 4
35 31 29 29 27 23 20 17 15 11 8 6 8 5 5 3 7 2 0 8 9 14 16 17 18 17 18 22 25 19 12 9 11 10 10 9 6 7 7 9 10 10 8
34 33 32 27 26 26 21 19 16 11 8 7 7 3 1 4 1 3 3 3 7 11 14 15 18 16 17 21 25 22 16 13 4 10 15 12 7 7 10 11 11 9 10
33 33 34 27 27 26 21 19 15 11 9 8 6 3 1 3 1 5 5 6 6 6 9 14 15 16 15 21 19 21 21 20 16 10 18 13 12 9 14 16 13 12 11
32 32 32 30 27 23 19 17 13 10 7 7 5 3 1 1 0 4 8 8 6 5 5 9 11 15 18 21 21 19 20 20 20 14 17 15 15 13 14 18 15 15 13
32 31 28 28 27 24 20 19 14 9 5 5 3 5 3 1 2 7 7 6 5 5 5 5 7 10 15 22 22 22 23 24 23 22 25 24 20 19 17 19 22 19 19
29 27 27 27 27 25 23 20 19 12 7 3 3 6 3 2 2 5 6 8 6 2 7 6 3 3 11 16 20 17 31 32 30 31 27 29 34 29 22 24 27 25 26
36 31 28 28 26 27 29 28 25 18 10 4 4 4 5 6 5 6 8 7 5 3 4 6 8 12 16 22 26 24 24 32 35 35 37 26 28 30 28 27 27 27 36
40 38 34 31 28 28 33 35 31 24 13 9 8 8 4 5 4 10 6 5 5 3 7 11 10 11 16 15 9 2 35 22 21 27 31 31 32 30 29 29 27 23 17
47 43 40 36 33 29 28 32 28 20 15 12 11 8 7 2 2 7 5 6 9 2 5 3 4 6 14 6 10 11 11 12 19 19 21 23 22 28 29 27 26 24 21
52 47 45 42 36 32 26 25 27 22 18 13 8 5 0 5 4 5 3 8 10 6 6 5 3 2 9 14 17 7 5 0 7 12 18 19 23 26 26 28 27 29 27
51 48 48 46 41 37 30 28 28 26 14 11 9 4 6 3 3 3 7 7 9 8 9 9 7 8 1 1 5 7 7 7 1 2 8 11 15 18 20 22 24 27 26
45 40 43 46 47 44 37 32 30 28 20 11 7 4 6 8 6 4 6 6 4 7 11 12 10 8 11 9 5 6 6 8 5 2 4 3 10 14 16 17 18 18 20
40 37 39 43 47 47 44 37 33 29 25 21 14 6 8 6 8 4 5 5 5 7 9 10 10 9 12 13 13 12 14 11 10 8 8 5 5 8 14 14 13 14 15
Wind_Direction_850mb
148 139 135 136 139 141 143 138 133 127 125 118 116 114 109 107 104 96 91 92 100 105 106 115 117 113 114 105 105 110 110 108 103 111 112 111 112 111 112 115 107 113 120
146 144 144 139 137 139 142 143 137 130 128 120 118 117 111 99 96 89 88 90 96 98 97 108 120 120 121 113 110 113 110 107 103 110 115 104 102 104 109 118 121 112 111
147 146 147 147 142 140 140 142 139 138 133 125 125 122 105 101 100 97 91 86 88 93 99 101 119 124 119 116 115 111 109 105 102 110 114 109 108 115 116 114 124 120 110
146 146 150 152 146 144 142 140 143 144 139 132 129 125 118 108 106 100 93 85 90 97 100 103 118 123 117 115 110 106 103 101 102 103 108 113 106 115 109 105 119 121 112
146 149 151 153 148 146 144 147 150 152 144 140 144 130 122 115 104 100 93 86 86 99 104 111 120 122 123 116 108 102 96 93 97 103 102 114 106 111 106 107 113 116 113
150 150 154 155 153 148 147 146 148 148 141 136 136 131 133 121 114 106 103 96 94 98 116 119 121 126 129 122 111 103 95 90 94 100 105 108 112 108 106 114 113 119 117
153 155 159 163 162 154 155 151 151 150 149 147 134 138 131 124 125 125 120 112 109 108 121 127 130 132 140 134 121 109 98 93 90 94 101 106 109 115 115 116 121 120 119
158 161 165 170 172 168 170 170 173 174 184 179 169 169 141 136 141 141 145 135 139 130 133 140 133 138 149 157 150 124 106 99 91 93 95 101 113 121 123 121 123 125 122
169 171 174 178 183 191 196 196 194 193 198 199 208 204 176 142 165 147 147 146 146 159 144 151 149 137 135 160 175 163 124 107 90 88 93 99 102 124 123 119 119 124 127
176 180 184 185 192 199 203 199 199 203 203 207 211 230 197 183 157 124 148 137 143 160 159 157 160 161 146 131 162 175 153 118 104 101 96 109 111 109 119 125 121 117 118
182 184 186 190 193 202 199 193 197 202 205 215 220 219 175 174 164 116 117 145 136 153 170 169 166 176 174 156 149 168 169 154 138 120 118 124 114 115 117 113 131 115 121
184 184 186 191 193 195 192 191 198 199 206 206 203 164 180 171 272 215 136 148 155 145 163 179 181 178 184 178 163 151 136 156 167 147 136 133 130 118 112 112 113 134 131
181 184 182 187 190 189 190 189 199 199 196 200 197 183 197 35 24 236 192 162 171 161 168 184 190 186 184 188 178 169 180 188 194 176 177 147 149 164 144 135 129 134 145
186 182 183 185 184 178 184 183 189 190 179 179 185 187 188 357 17 334 167 204 176 180 181 184 193 198 190 192 192 195 191 175 150 179 185 180 181 194 195 198 184 182 181
189 183 181 180 172 173 173 168 165 160 160 177 177 214 52 63 11 110 181 187 177 187 194 195 199 204 208 194 195 199 198 192 214 234 208 217 220 233 209 209 219 216 211
182 181 181 175 174 177 170 162 160 168 188 199 192 244 295 46 129 158 140 118 156 143 176 204 205 206 207 197 201 208 209 218 233 243 213 229 233 260 228 215 230 225 221
181 178 182 185 186 184 189 180 181 189 188 176 204 230 247 26 228 184 178 180 172 128 160 192 203 217 221 217 212 212 224 224 228 217 216 224 245 249 234 227 229 237 243
197 200 201 203 202 202 203 201 199 207 174 185 242 204 198 61 266 224 207 176 179 155 162 184 205 221 234 228 229 246 237 233 226 237 236 240 240 255 242 229 230 230 236
202 205 210 217 221 219 218 213 213 205 195 222 317 201 222 33 340 245 223 195 164 126 180 182 186 272 258 252 245 270 253 238 239 241 234 238 244 249 236 232 232 231 234
213 211 214 220 224 225 224 220 216 208 218 245 253 261 242 271 250 228 223 200 179 195 244 248 278 296 282 276 271 259 239 229 238 244 235 243 234 236 232 237 243 247 244
225 225 221 224 221 219 217 217 218 214 223 243 254 271 295 297 257 212 212 204 220 261 294 258 289 301 311 292 276 347 205 221 234 241 222 229 242 227 237 245 251 254 253
232 232 232 227 225 220 221 218 221 222 229 234 241 256 252 260 186 207 207 222 227 300 337 230 273 344 354 91 145 152 179 232 226 224 221 232 232 231 237 245 254 254 249
237 234 232 229 224 221 223 221 220 217 224 221 226 271 40 215 195 203 211 221 230 270 267 277 254 299 24 98 107 126 141 233 201 235 240 244 237 242 246 244 254 253 246
238 234 234 229 224 223 222 229 224 218 220 247 269 236 215 178 209 196 228 240 245 251 262 255 254 236 229 18 79 50 33 20 4 40 265 245 243 248 250 256 259 254 250
236 229 226 228 222 223 222 224 224 223 225 231 162 156 232 234 227 239 226 234 265 271 250 244 250 266 235 243 255 308 340 342 316 299 350 300 263 259 260 261 266 246 243
233 219 214 222 221 224 223 223 221 223 222 212 206 247 275 276 243 267 243 236 271 303 280 246 255 261 230 237 253 268 277 288 296 270 275 301 249 257 264 263 254 242 241